GEFSMA_con_probscp_102.txt.gz
Probability
1 1 2 2 1 0 1 2 3 3 3 2 1 0 0 0 0 0 1 2 3 4 3 4 7 8 7 7 8 8 6 6 7 6 4 2 2 2 2 2 4 5 6
2 1 1 1 0 0 1 2 3 3 3 2 2 1 1 1 0 0 0 1 2 3 4 6 7 8 7 7 7 6 5 6 7 7 5 3 3 4 4 4 5 6 7
2 1 0 0 0 1 2 3 3 3 3 2 3 3 2 2 1 0 0 0 1 3 5 6 6 6 6 8 8 6 5 5 5 5 5 5 4 4 5 6 6 6 5
3 1 1 0 1 2 4 5 6 4 3 3 3 3 3 3 2 1 0 0 1 2 4 5 5 5 6 8 8 7 6 6 5 5 5 5 5 5 4 5 5 5 4
3 2 1 0 1 2 5 8 8 5 4 4 3 3 3 3 3 2 1 1 0 1 2 2 3 4 5 6 7 6 6 6 6 5 4 5 6 6 5 3 3 3 2
4 3 1 1 1 2 4 6 6 5 5 4 4 3 3 3 3 3 3 2 1 0 0 0 2 3 4 5 5 5 4 4 5 5 4 5 6 6 4 3 1 1 1
4 3 2 2 2 2 2 2 3 3 3 4 4 4 3 3 3 3 3 3 1 1 0 0 1 2 3 3 3 2 3 4 4 5 4 4 5 5 4 2 0 0 0
4 3 4 4 3 2 1 1 1 2 2 2 3 4 4 3 3 3 3 3 3 2 1 0 1 1 1 2 1 1 2 3 4 4 4 4 4 4 3 1 0 0 0
3 3 4 4 3 2 1 0 1 2 1 1 2 3 3 3 2 1 1 2 3 3 2 0 0 0 0 0 0 0 1 1 1 2 3 3 3 3 2 1 0 0 0
3 3 3 2 1 1 0 0 1 1 1 0 1 2 3 3 2 1 1 1 2 2 1 0 0 0 0 0 0 0 0 0 0 0 1 1 1 1 1 0 0 0 0
1 2 2 1 0 0 0 0 0 0 0 0 0 1 2 3 3 2 2 1 2 2 1 0 0 0 0 0 0 0 0 0 0 0 0 0 0 0 0 0 0 0 0
0 1 1 0 0 0 0 0 0 0 0 0 0 0 1 2 2 2 2 2 2 1 0 0 0 0 0 0 0 0 0 0 0 0 0 0 0 0 0 0 0 0 0
0 0 0 0 0 0 0 0 0 0 0 0 0 0 0 1 1 1 1 1 1 0 0 0 0 0 0 0 0 0 0 0 0 0 0 0 0 0 0 0 0 0 0
0 0 0 0 0 0 0 0 0 0 0 0 0 0 0 0 0 0 0 0 0 0 0 0 0 0 0 0 0 0 0 0 0 0 0 0 0 0 0 0 0 0 0
0 0 0 0 0 0 0 0 0 0 0 0 0 0 0 0 0 0 0 0 0 0 0 0 0 0 0 0 0 0 0 0 0 0 0 0 0 0 0 0 0 0 0
0 0 0 0 0 0 0 0 0 0 0 0 0 0 0 0 0 0 0 0 0 0 0 0 0 0 0 0 0 0 0 0 0 0 0 0 0 0 0 0 0 0 0
0 0 0 0 0 0 0 0 0 0 0 0 0 0 0 0 0 0 0 0 0 0 0 0 0 0 0 0 0 0 0 0 0 0 0 0 0 0 0 0 0 0 0
0 0 0 0 0 0 0 0 0 0 0 0 0 0 0 0 0 0 0 0 0 0 0 0 0 0 0 0 0 0 0 0 0 0 0 0 0 0 0 0 0 0 0
0 0 0 0 0 0 0 0 0 0 0 0 0 0 0 0 0 0 0 0 0 0 0 0 0 0 0 0 0 0 0 0 0 0 0 0 0 0 0 0 0 0 0
0 0 0 0 0 0 0 0 0 0 0 0 0 0 0 0 0 0 0 0 0 0 0 0 0 0 0 0 0 0 0 0 0 0 0 0 0 0 0 0 0 0 0
0 0 0 0 0 0 0 0 0 0 0 0 0 0 0 0 0 0 0 0 0 0 0 0 0 0 0 0 0 0 0 0 0 0 0 0 0 0 0 0 0 0 0
0 0 0 0 0 0 0 0 0 0 0 0 0 0 0 0 0 0 0 0 0 0 0 0 0 0 0 0 0 0 0 0 0 0 0 0 0 0 0 0 0 0 0
0 0 0 0 0 0 0 0 0 0 0 0 0 0 0 0 0 0 0 0 0 0 0 0 0 0 0 0 0 0 0 0 0 0 0 0 0 0 0 0 0 0 0
0 0 0 0 0 0 0 0 0 0 0 0 0 0 0 0 0 0 0 0 0 0 0 0 0 0 0 0 0 0 0 0 0 0 0 0 0 0 0 0 0 0 0
0 0 0 0 0 0 0 0 0 0 0 0 0 0 0 0 0 0 0 0 0 0 0 0 0 0 0 0 0 0 0 0 0 0 0 0 0 0 0 0 0 0 0
0 0 0 0 0 0 0 0 0 0 0 0 0 0 0 0 0 0 0 0 0 0 0 0 0 0 0 0 0 0 0 0 0 0 0 0 0 0 0 0 0 0 0

GEFSMA_con_probscp_108.txt.gz
Probability
32 29 28 25 17 14 15 11 6 4 4 5 6 5 5 6 7 7 7 7 6 7 8 10 11 11 10 10 11 9 8 8 6 3 2 2 2 2 2 2 3 3 3
44 40 37 32 24 19 19 16 11 8 7 7 8 8 8 9 11 11 9 7 7 8 9 12 14 13 12 11 11 9 7 6 5 4 3 2 1 1 1 2 3 3 3
53 50 46 41 33 26 23 21 19 15 12 11 11 12 13 13 14 14 12 11 11 11 12 14 15 14 12 11 11 10 8 7 7 6 5 2 0 0 1 2 3 3 2
51 52 51 47 41 32 25 22 23 22 19 17 15 15 15 13 12 12 12 13 15 16 14 13 14 14 13 12 12 11 10 9 9 9 8 5 3 1 1 2 2 2 2
49 52 55 54 49 41 32 27 29 31 28 22 16 13 13 12 12 11 11 12 14 15 14 12 12 13 13 12 12 11 10 9 10 10 9 7 6 4 2 2 2 2 2
46 50 55 55 50 46 41 37 38 39 34 27 16 11 11 12 13 13 12 11 10 11 12 12 12 11 10 10 10 9 8 8 9 8 7 7 7 5 3 1 1 1 2
41 44 47 47 43 42 42 42 43 39 35 29 21 14 12 13 13 12 11 9 7 7 9 10 10 9 9 9 8 7 6 7 7 7 6 6 6 4 2 1 0 0 1
33 33 36 34 32 34 36 38 37 32 29 27 24 18 14 12 11 9 8 7 6 6 7 8 7 8 9 9 7 6 6 6 6 6 6 6 5 3 1 1 0 0 0
22 24 25 24 24 26 28 29 27 24 23 23 23 20 15 12 11 10 8 8 8 8 7 6 6 6 7 8 7 6 5 6 6 6 6 6 5 3 1 0 0 0 0
14 16 18 17 18 21 22 20 20 19 19 18 18 17 15 12 12 10 9 9 9 8 6 5 4 4 4 5 5 5 4 4 4 5 4 4 3 2 1 0 0 0 0
8 10 11 12 14 16 16 15 14 15 14 13 11 11 11 11 11 10 8 8 7 6 5 4 3 3 3 4 4 3 3 2 3 3 3 3 2 2 1 0 0 0 0
4 5 6 7 9 10 10 9 8 8 8 8 6 6 7 8 8 8 7 7 6 5 3 3 3 3 3 3 3 2 1 1 1 2 2 2 1 1 1 0 0 0 0
1 2 2 2 3 4 4 3 3 2 2 2 3 3 4 5 6 5 5 4 4 3 2 1 1 2 2 2 2 1 0 0 0 1 1 1 0 0 0 0 0 0 0
0 0 0 0 0 1 1 0 0 0 0 0 1 2 2 3 3 3 3 3 2 1 1 0 0 1 1 1 1 0 0 0 0 0 0 0 0 0 0 0 0 0 0
0 0 0 0 0 0 0 0 0 0 0 0 0 1 1 1 1 1 2 2 2 2 1 0 0 0 0 0 0 0 0 0 0 0 0 0 0 0 0 0 0 0 0
0 0 0 0 0 0 0 0 0 0 0 0 0 0 0 0 0 0 1 1 1 2 1 0 0 0 0 0 0 0 0 0 0 0 0 0 0 0 0 0 0 0 0
0 0 0 0 0 0 0 0 0 0 0 0 0 0 0 0 0 0 0 0 0 1 1 0 0 0 0 0 0 0 0 0 0 0 0 0 0 0 0 0 0 0 0
0 0 0 0 0 0 0 0 0 0 0 0 0 0 0 0 0 0 0 0 0 0 0 0 0 0 0 0 0 0 0 0 0 0 0 0 0 0 0 0 0 0 0
0 0 0 0 0 0 0 0 0 0 0 0 0 0 0 0 0 0 0 0 0 0 0 0 0 0 0 0 0 0 0 0 0 0 0 0 0 0 0 0 0 0 0
0 0 0 0 0 0 0 0 0 0 0 0 0 0 0 0 0 0 0 0 0 0 0 0 0 0 0 0 0 0 0 0 0 0 0 0 0 0 0 0 0 0 0
0 0 0 0 0 0 0 0 0 0 0 0 0 0 0 0 0 0 0 0 0 0 0 0 0 0 0 0 0 0 0 0 0 0 0 0 0 0 0 0 0 0 0
0 0 0 0 0 0 0 0 0 0 0 0 0 0 0 0 0 0 0 0 0 0 0 0 0 0 0 0 0 0 0 0 0 0 0 0 0 0 0 0 0 0 0
0 0 0 0 0 0 0 0 0 0 0 0 0 0 0 0 0 0 0 0 0 0 0 0 0 0 0 0 0 0 0 0 0 0 0 0 0 0 0 0 0 0 0
0 0 0 0 0 0 0 0 0 0 0 0 0 0 0 0 0 0 0 0 0 0 0 0 0 0 0 0 0 0 0 0 0 0 0 0 0 0 0 0 0 0 0
0 0 0 0 0 0 0 0 0 0 0 0 0 0 0 0 0 0 0 0 0 0 0 0 0 0 0 0 0 0 0 0 0 0 0 0 0 0 0 0 0 0 0
0 0 0 0 0 0 0 0 0 0 0 0 0 0 0 0 0 0 0 0 0 0 0 0 0 0 0 0 0 0 0 0 0 0 0 0 0 0 0 0 0 0 0

GEFSMA_con_probscp_114.txt.gz
Probability
34 39 38 31 24 23 24 18 13 11 10 8 7 8 12 14 15 12 10 13 16 17 17 16 16 18 16 12 9 5 3 1 1 0 0 0 0 0 0 0 0 0 0
47 47 45 36 29 30 30 24 18 16 14 11 10 13 17 22 24 20 15 14 16 18 19 18 17 17 17 15 12 9 6 4 4 3 2 2 1 0 0 0 0 0 0
56 54 48 40 36 37 38 34 29 25 23 20 19 19 23 28 30 28 21 16 14 16 18 18 16 16 16 16 14 12 10 8 8 8 8 7 4 2 1 0 0 0 0
52 50 45 41 38 38 38 38 37 35 31 28 25 23 24 29 29 28 24 18 15 15 15 15 14 15 16 17 15 13 11 10 11 12 13 12 9 6 3 1 0 0 0
44 44 43 41 39 38 36 34 37 39 33 27 23 20 20 23 24 23 22 19 18 18 15 13 13 14 17 18 16 14 12 12 13 14 14 14 12 9 5 3 1 0 0
40 40 41 41 40 39 35 33 36 35 29 24 19 14 13 15 17 18 18 18 19 20 18 15 13 14 16 16 15 15 14 14 14 13 12 11 10 8 5 3 2 1 0
34 34 35 39 39 37 33 33 33 29 24 21 17 12 8 8 11 14 15 15 16 17 17 15 14 14 14 13 13 14 15 15 13 11 10 8 8 7 5 4 3 2 1
28 27 29 32 34 33 30 28 26 22 18 17 15 11 6 5 7 9 11 12 11 12 13 13 12 13 13 12 12 13 13 12 11 10 9 8 7 7 6 5 4 3 3
24 24 24 25 26 27 26 23 19 17 15 14 13 9 6 4 5 7 8 9 8 9 10 10 10 11 12 10 10 10 9 9 10 10 10 9 8 7 6 6 5 4 4
18 20 20 19 19 21 21 20 17 15 14 13 12 9 6 4 4 5 6 7 8 8 8 8 8 9 8 6 6 5 5 5 6 7 8 8 7 6 6 6 6 5 4
12 14 13 12 13 14 16 15 13 12 11 10 9 7 4 3 2 2 2 4 5 6 6 5 5 4 3 3 3 3 2 1 2 3 4 5 5 4 4 4 4 4 3
10 10 9 7 7 8 9 8 7 6 4 4 4 2 1 1 1 0 0 1 2 3 4 3 2 1 1 1 2 2 1 0 0 1 1 2 2 2 3 3 3 2 1
9 8 7 6 4 4 5 4 4 3 2 1 1 0 0 0 0 0 0 0 1 2 2 1 1 0 0 0 1 1 1 0 0 0 0 1 1 1 1 2 2 1 0
6 6 6 5 4 3 4 4 3 2 2 2 1 0 0 0 0 1 1 0 0 1 1 0 0 0 0 0 0 0 0 0 0 0 0 0 0 0 0 1 1 0 0
3 3 3 3 3 2 3 3 2 1 1 1 1 0 0 0 0 0 1 1 0 0 0 0 0 0 0 0 0 0 0 0 0 0 0 0 0 0 0 0 0 0 0
1 1 1 1 1 1 1 1 1 0 0 0 0 0 0 0 0 0 0 0 0 0 0 0 0 0 0 0 0 0 0 0 0 0 0 0 0 0 0 0 0 0 0
0 0 0 0 0 0 0 0 0 0 0 0 0 0 0 0 0 0 0 0 0 0 0 0 0 0 0 0 0 0 0 0 0 0 0 0 0 0 0 0 0 0 0
0 0 0 0 0 0 0 0 0 0 0 0 0 0 0 0 0 0 0 0 0 0 0 0 0 0 0 0 0 0 0 0 0 0 0 0 0 0 0 0 0 0 0
0 0 0 0 0 0 0 0 0 0 0 0 0 0 0 0 0 0 0 0 0 0 0 0 0 0 0 0 0 0 0 0 0 0 0 0 0 0 0 0 0 0 0
0 0 0 0 0 0 0 0 0 0 0 0 0 0 0 0 0 0 0 0 0 0 0 0 0 0 0 0 0 0 0 0 0 0 0 0 0 0 0 0 0 0 0
0 0 0 0 0 0 0 0 0 0 0 0 0 0 0 0 0 0 0 0 0 0 0 0 0 0 0 0 0 0 0 0 0 0 0 0 0 0 0 0 0 0 0
0 0 0 0 0 0 0 0 0 0 0 0 0 0 0 0 0 0 0 0 0 0 0 0 0 0 0 0 0 0 0 0 0 0 0 0 0 0 0 0 0 0 0
0 0 0 0 0 0 0 0 0 0 0 0 0 0 0 0 0 0 0 0 0 0 0 0 0 0 0 0 0 0 0 0 0 0 0 0 0 0 0 0 0 0 0
0 0 0 0 0 0 0 0 0 0 0 0 0 0 0 0 0 0 0 0 0 0 0 0 0 0 0 0 0 0 0 0 0 0 0 0 0 0 0 0 0 0 0
0 0 0 0 0 0 0 0 0 0 0 0 0 0 0 0 0 0 0 0 0 0 0 0 0 0 0 0 0 0 0 0 0 0 0 0 0 0 0 0 0 0 0
0 0 0 0 0 0 0 0 0 0 0 0 0 0 0 0 0 0 0 0 0 0 0 0 0 0 0 0 0 0 0 0 0 0 0 0 0 0 0 0 0 0 0

GEFSMA_con_probscp_120.txt.gz
Probability
0 0 1 1 3 4 6 6 6 6 5 5 4 3 1 0 1 3 6 14 23 23 18 13 10 11 13 14 13 10 5 3 2 1 0 0 0 0 0 0 0 0 0
0 1 1 1 2 3 5 7 6 5 5 5 4 2 1 1 3 5 6 11 19 23 20 15 9 8 9 10 11 9 6 5 3 1 0 0 0 0 0 0 0 0 0
1 2 2 1 1 2 4 6 6 5 5 5 3 1 1 2 4 5 4 4 9 15 16 12 8 7 6 7 7 7 7 6 5 3 1 0 0 0 0 0 0 0 0
1 2 2 1 0 1 3 4 5 4 4 4 2 1 1 1 2 2 1 1 3 6 7 7 8 9 8 7 7 7 8 7 6 4 2 1 0 0 0 0 0 0 0
3 2 1 0 0 0 1 2 3 3 2 2 2 2 1 0 0 0 1 1 1 1 2 4 7 9 9 9 9 10 10 8 7 5 3 2 1 1 0 0 0 0 0
6 4 2 1 1 1 0 1 1 2 1 1 1 1 1 0 0 0 0 0 0 0 1 3 5 6 7 9 11 13 11 8 7 6 4 4 3 2 1 0 0 0 0
7 6 4 3 2 2 0 0 0 0 0 0 0 0 0 0 0 0 0 0 0 0 1 2 2 2 4 6 10 13 12 10 9 7 5 5 5 4 2 1 1 0 0
8 7 6 5 4 2 0 0 0 0 0 0 0 0 0 0 0 0 0 0 0 0 1 1 1 0 1 3 6 9 11 11 10 8 6 6 6 4 3 3 2 1 0
7 6 6 6 3 1 0 0 0 0 0 0 0 0 0 0 0 0 0 0 0 0 0 0 0 0 0 1 3 5 7 9 9 8 7 6 5 4 3 3 3 2 1
6 5 4 3 2 1 0 0 0 0 0 0 0 0 0 0 0 0 0 0 0 0 0 0 0 0 1 1 1 2 3 5 5 6 6 5 4 3 3 3 3 3 3
4 3 2 1 1 0 0 0 0 0 0 0 0 0 0 0 0 0 0 0 0 0 0 0 0 0 1 1 0 0 1 2 2 3 3 3 3 3 3 3 3 3 3
2 1 1 0 0 0 0 0 0 0 0 0 0 0 0 0 0 0 0 0 0 0 0 0 0 0 1 1 0 0 0 0 1 1 1 1 1 2 3 3 3 3 3
1 0 0 0 0 0 0 0 0 0 0 0 0 0 0 0 0 0 0 0 0 0 0 0 0 0 0 0 0 0 0 0 0 0 0 0 0 1 3 3 3 3 3
0 0 0 0 0 0 0 0 0 0 0 0 0 0 0 0 0 0 0 0 0 0 0 0 0 0 0 0 0 0 0 0 0 0 0 0 0 1 2 2 2 2 2
0 0 0 0 0 0 0 0 0 0 0 0 0 0 0 0 0 0 0 0 0 0 0 0 0 0 0 0 0 0 0 0 0 0 0 0 0 0 1 1 1 1 1
0 0 0 0 0 0 0 0 0 0 0 0 0 0 0 0 0 0 0 0 0 0 0 0 0 0 0 0 0 0 0 0 0 0 0 0 0 0 0 0 0 0 0
0 0 0 0 0 0 0 0 0 0 0 0 0 0 0 0 0 0 0 0 0 0 0 0 0 0 0 0 0 0 0 0 0 0 0 0 0 0 0 0 0 0 0
0 0 0 0 0 0 0 0 0 0 0 0 0 0 0 0 0 0 0 0 0 0 0 0 0 0 0 0 0 0 0 0 0 0 0 0 0 0 0 0 0 0 0
0 0 0 0 0 0 0 0 0 0 0 0 0 0 0 0 0 0 0 0 0 0 0 0 0 0 0 0 0 0 0 0 0 0 0 0 0 0 0 0 0 0 0
0 0 0 0 0 0 0 0 0 0 0 0 0 0 0 0 0 0 0 0 0 0 0 0 0 0 0 0 0 0 0 0 0 0 0 0 0 0 0 0 0 0 0
0 0 0 0 0 0 0 0 0 0 0 0 0 0 0 0 0 0 0 0 0 0 0 0 0 0 0 0 0 0 0 0 0 0 0 0 0 0 0 0 0 0 0
0 0 0 0 0 0 0 0 0 0 0 0 0 0 0 0 0 0 0 0 0 0 0 0 0 0 0 0 0 0 0 0 0 0 0 0 0 0 0 0 0 0 0
0 0 0 0 0 0 0 0 0 0 0 0 0 0 0 0 0 0 0 0 0 0 0 0 0 0 0 0 0 0 0 0 0 0 0 0 0 0 0 0 0 0 0
0 0 0 0 0 0 0 0 0 0 0 0 0 0 0 0 0 0 0 0 0 0 0 0 0 0 0 0 0 0 0 0 0 0 0 0 0 0 0 0 0 0 0
0 0 0 0 0 0 0 0 0 0 0 0 0 0 0 0 0 0 0 0 0 0 0 0 0 0 0 0 0 0 0 0 0 0 0 0 0 0 0 0 0 0 0
0 0 0 0 0 0 0 0 0 0 0 0 0 0 0 0 0 0 0 0 0 0 0 0 0 0 0 0 0 0 0 0 0 0 0 0 0 0 0 0 0 0 0

GEFSMA_con_probscp_126.txt.gz
Probability
10 7 4 4 4 5 5 3 1 1 3 5 3 1 2 2 2 4 6 7 7 6 6 5 5 7 7 4 2 1 3 4 4 2 1 0 0 0 0 0 0 0 0
9 6 3 3 4 4 4 3 2 2 3 4 3 1 1 2 3 5 7 9 9 9 8 8 8 8 7 6 4 3 3 3 3 2 1 0 0 0 0 0 0 0 0
6 5 4 2 2 2 2 3 3 3 2 2 2 2 2 2 3 5 6 7 7 8 8 10 10 8 7 7 7 6 4 3 3 1 0 0 0 0 0 0 0 0 0
5 5 4 2 0 1 1 1 2 2 1 1 2 4 4 3 3 3 3 2 2 3 4 6 9 10 8 7 6 5 5 5 4 2 0 0 0 0 0 0 0 0 0
5 5 3 2 1 0 0 0 1 1 1 0 2 3 3 2 1 1 1 0 0 0 1 3 7 10 8 5 3 2 3 4 3 2 1 1 2 1 0 0 0 0 0
5 4 2 1 1 1 0 0 0 0 0 0 0 1 1 1 0 0 0 0 0 0 0 2 5 7 7 5 2 1 1 1 1 3 4 4 4 2 1 1 1 0 0
4 4 3 2 1 1 0 0 0 0 0 0 0 0 0 0 0 0 0 0 0 0 0 1 3 4 5 5 4 3 3 2 2 4 7 7 4 2 2 2 2 1 0
5 5 4 3 3 2 1 1 0 0 0 0 0 0 0 0 0 0 0 0 0 0 0 0 1 3 4 4 4 4 5 5 5 6 8 6 3 2 2 3 3 2 1
6 6 5 4 3 3 3 2 1 0 0 0 0 0 0 0 0 0 0 0 0 0 0 0 1 1 2 2 2 3 3 4 4 4 5 4 2 2 2 2 3 3 3
6 6 6 4 3 3 3 2 1 0 0 0 0 0 0 0 0 0 0 0 0 0 0 0 0 0 1 1 1 1 1 1 1 1 2 2 2 2 2 3 4 4 4
6 6 4 3 3 3 3 2 1 0 0 0 0 0 0 0 0 0 0 0 0 0 0 0 0 0 0 0 1 0 0 0 0 0 0 1 2 3 3 4 5 4 4
6 4 3 2 2 2 1 1 0 0 0 0 0 0 0 0 0 0 0 0 0 0 0 0 0 0 0 0 0 0 0 0 0 0 0 0 1 3 4 5 4 4 4
4 3 3 2 1 1 0 0 0 0 0 0 0 0 0 0 0 0 0 0 0 0 0 0 0 0 0 0 0 0 0 0 0 0 0 0 1 2 3 3 3 3 3
2 2 2 2 1 0 0 0 0 0 0 0 0 0 0 0 0 0 0 0 0 0 0 0 0 0 0 0 0 0 0 0 0 0 0 0 0 1 1 1 1 2 3
0 1 1 1 0 0 0 0 0 0 0 0 0 0 0 0 0 0 0 0 0 0 0 0 0 0 0 0 0 0 0 0 0 0 0 0 0 0 0 0 0 1 2
0 0 0 0 0 0 0 0 0 0 0 0 0 0 0 0 0 0 0 0 0 0 0 0 0 0 0 0 0 0 0 0 0 0 0 0 0 0 0 0 0 0 1
0 0 0 0 0 0 0 0 0 0 0 0 0 0 0 0 0 0 0 0 0 0 0 0 0 0 0 0 0 0 0 0 0 0 0 0 0 0 0 0 0 0 0
0 0 0 0 0 0 0 0 0 0 0 0 0 0 0 0 0 0 0 0 0 0 0 0 0 0 0 0 0 0 0 0 0 0 0 0 0 0 0 0 0 0 0
0 0 0 0 0 0 0 0 0 0 0 0 0 0 0 0 0 0 0 0 0 0 0 0 0 0 0 0 0 0 0 0 0 0 0 0 0 0 0 0 0 0 0
0 0 0 0 0 0 0 0 0 0 0 0 0 0 0 0 0 0 0 0 0 0 0 0 0 0 0 0 0 0 0 0 0 0 0 0 0 0 0 0 0 0 0
0 0 0 0 0 0 0 0 0 0 0 0 0 0 0 0 0 0 0 0 0 0 0 0 0 0 0 0 0 0 0 0 0 0 0 0 0 0 0 0 0 0 0
0 0 0 0 0 0 0 0 0 0 0 0 0 0 0 0 0 0 0 0 0 0 0 0 0 0 0 0 0 0 0 0 0 0 0 0 0 0 0 0 0 0 0
0 0 0 0 0 0 0 0 0 0 0 0 0 0 0 0 0 0 0 0 0 0 0 0 0 0 0 0 0 0 0 0 0 0 0 0 0 0 0 0 0 0 0
0 0 0 0 0 0 0 0 0 0 0 0 0 0 0 0 0 0 0 0 0 0 0 0 0 0 0 0 0 0 0 0 0 0 0 0 0 0 0 0 0 0 0
0 0 0 0 0 0 0 0 0 0 0 0 0 0 0 0 0 0 0 0 0 0 0 0 0 0 0 0 0 0 0 0 0 0 0 0 0 0 0 0 0 0 0
0 0 0 0 0 0 0 0 0 0 0 0 0 0 0 0 0 0 0 0 0 0 0 0 0 0 0 0 0 0 0 0 0 0 0 0 0 0 0 0 0 0 0

GEFSMA_con_probscp_132.txt.gz
Probability
32 30 30 28 24 23 23 21 20 18 12 7 6 5 5 4 4 6 10 12 14 15 14 12 10 8 7 8 10 12 12 10 7 5 5 4 3 2 3 3 3 3 3
31 30 29 28 25 25 27 26 24 21 16 11 8 8 7 7 6 7 9 12 14 17 17 15 13 11 9 10 11 11 12 10 7 5 4 4 3 2 3 3 3 3 3
27 28 28 28 28 29 31 33 30 26 20 15 13 13 12 11 9 8 8 11 14 17 17 16 14 13 13 13 12 11 11 10 9 7 6 4 4 3 3 3 3 2 1
27 30 31 31 32 32 32 33 33 30 25 20 18 16 16 15 11 8 8 11 14 15 15 14 13 13 15 15 14 12 12 12 11 10 9 6 5 5 4 3 2 1 0
28 32 34 34 34 33 31 31 33 32 28 24 19 16 16 16 12 7 6 9 11 12 12 12 13 13 15 16 15 14 13 12 11 10 10 8 6 5 4 3 2 1 0
25 28 31 32 33 34 33 33 33 31 29 25 18 14 14 13 11 9 7 7 9 9 9 10 11 11 12 14 15 13 11 10 9 9 9 9 7 3 2 3 2 1 1
21 23 25 28 30 34 35 34 34 31 28 24 19 14 11 10 10 11 9 7 7 6 6 6 6 7 9 12 12 9 7 6 7 7 6 6 5 2 1 2 2 1 0
18 18 20 23 26 30 32 32 31 29 26 23 19 15 10 9 10 9 8 7 7 6 5 4 4 5 9 11 9 6 4 3 5 6 4 3 2 1 1 1 1 0 0
14 15 16 18 21 24 25 25 25 23 20 18 17 16 13 11 12 10 8 7 7 7 5 4 3 5 8 10 8 4 3 3 4 4 3 3 2 1 1 2 2 1 1
13 13 14 14 15 16 16 16 17 17 14 12 13 14 12 10 10 9 8 6 6 5 5 3 3 5 7 7 5 2 1 2 2 2 3 4 3 2 2 2 2 2 2
12 12 12 11 10 9 7 7 9 12 11 9 9 9 8 7 7 6 5 3 3 3 3 2 3 4 5 4 2 1 0 1 1 1 2 3 2 1 1 1 1 2 3
10 10 10 10 9 6 4 3 6 8 9 8 7 6 5 5 6 5 3 1 1 1 1 1 1 2 3 2 2 1 0 0 0 0 1 1 1 0 0 1 1 2 2
8 8 8 9 8 5 2 2 4 6 6 6 6 6 6 6 6 5 3 1 0 0 0 0 0 0 1 2 2 1 0 0 0 0 0 0 0 0 0 0 1 1 1
6 6 6 6 6 4 2 1 2 3 3 3 3 4 4 4 3 3 2 1 0 0 0 0 0 0 2 3 2 2 1 0 0 0 0 0 0 0 0 0 0 0 0
5 5 4 4 4 3 3 2 1 1 1 1 1 1 1 1 0 1 1 0 0 0 0 0 0 1 3 3 2 2 2 1 0 0 0 0 0 0 0 0 0 0 0
4 4 3 3 3 3 3 3 2 1 0 0 0 0 0 0 0 0 0 0 0 0 0 0 1 2 4 4 3 4 4 2 1 0 0 0 0 0 0 0 0 0 0
2 1 1 1 2 2 2 2 2 1 0 0 0 0 0 0 0 0 0 0 0 0 0 1 2 3 3 4 4 5 4 2 2 1 0 0 0 0 0 0 0 0 0
0 0 0 0 1 1 1 1 1 1 0 0 0 0 1 1 0 0 0 0 0 1 1 2 3 3 3 3 4 4 3 2 2 1 0 0 0 0 0 0 0 0 0
0 0 0 0 0 0 0 0 0 0 0 0 0 1 2 2 1 1 1 0 0 1 2 3 3 3 3 3 3 3 3 3 2 1 0 0 0 0 0 0 0 0 0
1 1 1 1 0 0 0 1 1 0 1 1 0 1 2 2 1 1 0 0 0 1 2 3 3 3 3 3 3 3 3 3 3 1 1 1 1 1 1 0 0 0 0
2 2 2 2 1 0 0 1 1 1 2 2 1 0 1 1 1 0 0 0 0 0 1 2 2 2 2 2 2 1 1 3 3 3 2 2 2 2 2 1 0 0 0
3 3 3 3 2 1 0 1 1 2 3 3 2 0 0 0 0 0 0 0 0 0 0 1 1 1 1 1 1 1 1 3 3 3 3 3 3 3 3 2 1 0 0
3 3 3 3 2 1 0 0 1 2 3 3 1 0 0 0 0 0 0 0 0 0 0 0 0 0 0 1 1 2 3 3 3 3 3 3 3 3 3 2 1 0 0
2 2 3 3 2 1 0 0 1 2 3 2 1 0 0 0 0 0 0 0 0 0 0 0 1 0 0 1 2 2 3 3 3 3 2 2 3 3 3 3 1 0 0
1 1 1 2 2 1 0 0 1 2 2 1 0 0 0 0 0 0 0 0 0 0 0 0 0 0 0 1 1 2 3 3 3 3 2 2 3 3 3 3 2 1 0
0 0 0 1 1 0 0 0 0 1 1 0 0 0 0 0 0 0 0 0 0 0 0 0 0 0 0 0 1 2 3 3 3 3 3 3 3 3 3 3 3 2 1

GEFSMA_con_probscp_138.txt.gz
Probability
24 26 28 27 24 21 20 18 15 12 10 9 9 8 7 8 8 6 7 11 15 19 18 17 16 15 14 13 13 12 11 9 8 8 7 5 3 2 1 0 0 0 1
34 33 33 30 26 24 24 24 22 18 14 13 13 14 14 14 14 13 12 13 17 21 20 18 17 17 16 13 11 11 10 9 7 6 6 6 5 4 3 1 0 0 1
45 42 37 31 28 26 28 30 28 23 19 17 19 22 24 23 20 19 20 19 19 22 24 21 19 20 18 13 9 9 11 10 7 6 6 6 6 6 5 3 1 0 1
47 45 39 32 28 28 28 26 25 23 21 20 21 24 26 25 21 20 21 21 20 21 24 23 21 20 17 13 10 11 13 12 9 7 6 5 5 5 4 3 2 1 0
43 43 39 33 29 28 25 21 20 21 22 20 17 17 19 19 18 16 16 18 18 18 18 19 19 17 14 13 12 12 13 13 10 8 7 6 5 5 4 3 2 1 0
38 37 35 33 29 27 25 21 18 18 19 16 11 10 12 13 13 13 13 15 16 15 13 13 14 13 12 11 12 11 11 11 9 7 6 6 5 4 3 3 2 1 0
33 31 30 29 27 25 24 22 19 16 14 12 10 10 10 10 11 13 13 14 14 13 12 13 13 12 10 9 10 10 9 8 7 6 5 6 6 4 3 3 2 1 0
22 22 22 24 24 22 21 22 20 15 11 10 11 10 7 7 9 10 11 11 11 11 10 10 11 10 8 7 8 8 8 7 6 6 5 6 7 5 3 2 2 2 1
15 15 16 18 19 18 18 19 19 14 9 8 8 7 5 5 6 7 7 8 8 8 7 6 7 7 6 4 5 6 7 6 6 6 6 7 7 6 4 3 2 3 3
13 13 13 13 14 13 14 16 16 13 8 6 6 6 5 4 3 3 4 5 6 6 5 3 2 3 3 2 3 5 6 5 5 6 6 7 7 6 5 4 3 3 3
13 12 11 11 10 10 10 11 11 10 7 5 5 6 6 4 2 1 1 2 3 4 3 1 0 1 1 1 3 5 4 3 3 4 5 5 5 6 5 5 5 4 2
13 12 11 10 9 9 7 5 4 4 3 2 2 3 4 3 1 0 0 0 1 2 2 1 0 0 0 0 2 2 2 1 1 1 2 2 3 4 4 4 5 4 3
12 11 10 9 8 7 4 2 1 1 1 0 0 1 1 1 1 1 0 0 0 1 1 0 0 0 0 0 0 0 0 0 0 0 0 0 1 2 2 3 3 3 3
10 9 8 7 7 6 3 1 0 0 0 0 0 0 1 1 1 1 1 0 0 0 0 0 0 0 0 0 0 0 0 0 0 0 0 0 0 1 1 1 1 1 1
7 7 7 6 6 6 3 1 1 1 1 0 0 1 1 2 1 1 1 0 0 0 0 0 0 0 0 0 0 0 0 0 0 0 0 0 0 0 0 0 0 0 0
6 6 6 6 6 5 4 2 2 2 1 1 1 1 1 1 1 1 0 0 0 0 0 0 0 0 0 0 0 0 0 0 0 0 0 0 0 0 0 0 0 0 0
4 4 4 5 5 4 3 3 2 2 1 1 1 1 0 0 1 1 0 0 0 0 0 0 0 0 0 0 0 0 0 0 0 0 0 0 0 0 0 0 0 0 0
2 3 3 4 4 3 2 2 2 2 2 2 2 1 0 0 0 0 0 0 0 0 0 0 0 0 0 0 0 0 0 0 0 0 0 0 0 0 0 0 0 0 0
1 1 2 2 2 1 1 1 2 2 1 1 1 1 0 0 0 0 0 0 0 0 0 0 0 0 0 0 0 0 0 0 0 0 0 0 0 0 0 0 0 0 0
0 0 1 1 1 0 0 0 1 1 0 0 0 0 0 0 0 0 0 0 0 0 0 0 0 0 0 0 0 0 0 0 0 0 0 0 0 0 0 0 0 0 0
0 0 0 0 0 0 0 0 0 0 0 0 0 0 0 0 0 0 0 0 0 0 0 0 0 0 0 0 0 0 0 0 0 0 0 0 0 0 0 0 0 0 0
0 0 0 0 0 0 0 0 0 0 0 0 0 0 0 0 0 0 0 0 0 0 0 0 0 0 0 0 0 0 0 0 0 0 0 0 0 0 0 0 0 0 0
0 0 0 0 0 0 0 0 0 0 0 0 0 0 0 0 0 0 0 0 0 0 0 0 0 0 0 0 0 0 0 0 0 0 0 0 0 0 0 0 0 0 0
0 0 0 0 0 0 0 0 0 0 0 0 0 0 0 0 0 0 0 0 0 0 0 0 0 0 0 0 0 0 0 0 0 0 0 0 0 0 0 0 0 0 0
0 0 0 0 0 0 0 0 0 0 0 0 0 0 0 0 0 0 0 0 0 0 0 0 0 0 0 0 0 0 0 0 0 0 0 0 0 0 0 0 0 0 0
0 0 0 0 0 0 0 0 0 0 0 0 0 0 0 0 0 0 0 0 0 0 0 0 0 0 0 0 0 0 0 0 0 0 0 0 0 0 0 0 0 0 0

GEFSMA_con_probscp_144.txt.gz
Probability
0 0 1 2 2 2 1 0 1 1 1 0 0 0 0 1 2 3 3 2 1 2 4 6 7 7 8 9 10 9 8 5 4 4 5 4 4 4 4 5 4 3 3
0 0 1 1 1 1 0 0 0 0 0 0 0 0 0 1 3 3 3 3 2 2 4 6 7 7 8 9 9 9 8 7 5 5 5 5 4 4 4 4 4 3 3
0 1 1 0 0 0 0 0 0 0 0 0 0 0 0 1 2 2 2 2 2 3 4 5 7 8 9 9 10 10 9 9 8 8 7 6 5 4 4 4 4 4 4
2 3 2 1 1 0 0 0 0 0 0 0 0 0 0 1 1 1 1 1 1 1 2 4 7 9 9 11 11 10 9 9 9 9 8 8 7 5 4 4 5 5 4
5 5 5 4 3 2 1 0 0 0 0 0 0 0 0 0 0 0 0 0 0 0 1 2 5 6 7 10 10 8 6 8 8 8 8 8 8 7 6 6 6 5 4
6 6 5 5 6 5 3 1 1 0 0 0 0 0 0 0 0 0 0 0 0 0 0 1 3 3 5 8 8 6 5 6 6 6 6 7 7 6 6 6 5 4 4
7 6 5 5 5 6 5 3 2 1 1 0 0 0 0 0 0 0 0 0 0 1 1 2 3 2 2 5 6 5 4 5 5 5 6 6 6 6 5 5 5 4 4
9 7 5 5 5 6 5 4 3 3 2 1 0 0 0 0 0 0 0 0 0 1 2 3 3 2 1 1 2 3 3 4 4 4 5 6 6 6 6 5 4 4 4
9 9 8 7 6 6 6 4 3 3 2 1 0 0 0 0 0 0 0 0 0 1 2 3 3 2 1 0 0 1 2 3 4 4 5 5 5 5 6 5 4 3 3
8 9 9 9 7 7 6 4 3 2 1 0 0 0 0 0 0 0 0 0 0 0 1 2 2 2 1 0 0 0 0 1 2 3 3 3 3 4 4 5 4 3 3
7 7 8 9 8 7 5 3 1 1 0 0 0 0 0 0 0 0 0 0 0 0 0 1 1 1 0 0 0 0 0 0 0 1 1 1 1 3 4 4 4 3 3
6 6 7 7 7 7 5 2 0 0 0 0 0 0 0 0 0 0 0 0 0 0 0 0 0 0 0 0 0 0 0 0 0 0 0 0 1 2 3 4 5 4 4
3 4 6 6 6 6 5 3 1 0 0 0 0 0 0 0 0 0 0 0 0 0 0 0 0 0 0 0 0 0 0 0 0 0 0 0 0 1 1 3 3 4 4
1 2 4 6 6 6 4 3 2 1 0 0 0 0 0 0 0 0 0 0 0 0 0 0 0 0 0 0 0 0 0 0 0 0 0 0 0 0 0 1 1 2 3
0 0 2 3 4 4 4 3 3 2 1 0 0 0 0 0 0 0 0 0 0 0 0 0 0 0 0 0 0 0 0 0 0 0 0 0 0 0 0 0 0 0 1
0 0 0 1 1 2 2 3 3 2 1 0 0 0 0 0 0 0 0 0 0 0 0 0 0 0 0 0 0 0 0 0 0 0 0 0 0 0 0 0 0 0 0
0 0 0 0 0 0 1 1 2 2 1 0 0 0 0 0 0 0 0 0 0 0 0 0 0 0 0 0 0 0 0 0 0 0 0 0 0 0 0 0 0 0 0
0 0 0 0 0 0 0 0 1 1 0 0 0 0 0 0 0 0 0 0 0 0 0 0 0 0 0 0 0 0 0 0 0 0 0 0 0 0 0 0 0 0 0
0 0 0 0 0 0 0 0 0 0 0 0 0 0 0 0 0 0 0 0 0 0 0 0 0 0 0 0 0 0 0 0 0 0 0 0 0 0 0 0 0 0 0
0 0 0 0 0 0 0 0 0 0 0 0 0 0 0 0 0 0 0 0 0 0 0 0 0 0 0 0 0 0 0 0 0 0 0 0 0 0 0 0 0 0 0
0 0 0 0 0 0 0 0 0 0 0 0 0 0 0 0 0 0 0 0 0 0 0 0 0 0 0 0 0 0 0 0 0 0 0 0 0 0 0 0 0 0 0
0 0 0 0 0 0 0 0 0 0 0 0 0 0 0 0 0 0 0 0 0 0 0 0 0 0 0 0 0 0 0 0 0 0 0 0 0 0 0 0 0 0 0
0 0 0 0 0 0 0 0 0 0 0 0 0 0 0 0 0 0 0 0 0 0 0 0 0 0 0 0 0 0 0 0 0 0 0 0 0 0 0 0 0 0 0
0 0 0 0 0 0 0 0 0 0 0 0 0 0 0 0 0 0 0 0 0 0 0 0 0 0 0 0 0 0 0 0 0 0 0 0 0 0 0 0 0 0 0
0 0 0 0 0 0 0 0 0 0 0 0 0 0 0 0 0 0 0 0 0 0 0 0 0 0 0 0 0 0 0 0 0 0 0 0 0 0 0 0 0 0 0
0 0 0 0 0 0 0 0 0 0 0 0 0 0 0 0 0 0 0 0 0 0 0 0 0 0 0 0 0 0 0 0 0 0 0 0 0 0 0 0 0 0 0

GEFSMA_con_probscp_150.txt.gz
Probability
0 0 0 0 0 0 0 0 1 1 1 0 0 1 1 1 0 0 0 0 1 2 3 3 4 4 4 3 3 3 3 3 2 2 1 1 1 1 1 1 1 1 0
0 0 0 0 0 0 0 0 0 0 0 0 0 0 0 0 0 0 0 0 1 2 3 3 2 3 3 3 3 4 5 5 4 2 1 1 1 2 2 2 1 2 1
0 0 0 0 0 0 0 0 0 0 0 0 0 0 0 0 0 0 0 0 0 1 3 3 2 1 1 1 3 5 6 7 6 3 1 1 2 2 4 4 3 3 3
1 1 0 0 0 0 0 0 0 0 0 0 0 0 0 0 0 0 0 0 0 0 1 2 4 4 2 1 2 3 4 6 6 4 3 3 2 3 4 4 4 3 3
0 0 0 0 0 0 0 0 0 0 0 0 0 0 0 0 0 0 0 0 0 0 0 2 5 6 5 3 2 1 3 5 6 5 4 3 3 3 4 4 4 3 2
1 1 1 1 1 1 0 0 0 0 0 0 0 0 0 0 0 0 0 0 0 0 0 1 3 4 5 4 2 2 2 5 7 5 4 3 3 3 4 3 3 3 2
2 2 2 2 3 3 2 1 1 1 0 0 0 0 0 0 0 0 0 0 0 0 0 1 2 2 3 2 2 2 2 4 6 5 3 2 3 3 3 3 3 3 3
3 3 3 3 4 4 4 2 2 2 1 0 0 0 0 0 0 0 0 0 0 0 0 1 2 2 2 1 1 1 1 2 3 4 2 1 2 3 3 2 3 3 3
3 3 3 3 3 4 3 2 2 3 2 1 0 0 0 0 0 0 0 0 0 0 0 0 1 1 1 1 0 0 0 0 1 2 2 1 2 2 2 2 2 3 3
3 3 3 3 3 3 3 2 2 3 3 2 1 0 0 0 0 0 0 0 0 0 0 0 0 0 0 0 0 0 0 0 1 1 1 1 1 2 2 1 1 1 2
1 2 3 3 3 3 4 3 2 2 3 2 1 0 0 0 0 0 0 0 0 0 0 0 0 0 0 0 0 0 0 0 0 0 0 0 1 1 1 1 1 0 1
0 1 2 3 3 4 5 5 3 2 1 1 1 0 0 0 0 0 0 0 0 0 0 0 0 0 0 0 0 0 0 0 0 0 0 0 0 0 1 1 1 1 1
0 0 1 2 3 4 5 5 3 2 0 0 0 0 0 0 0 0 0 0 0 0 0 0 0 0 0 0 0 0 0 0 0 0 0 0 0 0 0 0 0 1 1
0 0 0 1 2 3 4 4 3 2 1 0 0 0 0 0 0 0 0 0 0 0 0 0 0 0 0 0 0 0 0 0 0 0 0 0 0 0 0 0 0 0 1
0 0 0 0 1 2 3 3 3 3 1 0 0 0 0 0 0 0 0 0 0 0 0 0 0 0 0 0 0 0 0 0 0 0 0 0 0 0 0 0 0 0 0
0 0 0 0 0 1 2 3 3 3 2 1 0 0 0 0 0 0 0 0 0 0 0 0 0 0 0 0 0 0 0 0 0 0 0 0 0 0 0 0 0 0 0
0 0 0 0 0 0 1 1 2 3 3 2 1 0 0 0 0 0 0 0 0 0 0 0 0 0 0 0 0 0 0 0 0 0 0 0 0 0 0 0 0 0 0
0 0 0 0 0 0 0 0 1 1 2 2 1 0 0 0 0 0 0 0 0 0 0 0 0 0 0 0 0 0 0 0 0 0 0 0 0 0 0 0 0 0 0
0 0 0 0 0 0 0 0 0 0 1 1 0 0 0 0 0 0 0 0 0 0 0 0 0 0 0 0 0 0 0 0 0 0 0 0 0 0 0 0 0 0 0
0 0 0 0 0 0 0 0 0 0 0 0 0 0 0 0 0 0 0 0 0 0 0 0 0 0 0 0 0 0 0 0 0 0 0 0 0 0 0 0 0 0 0
0 0 0 0 0 0 0 0 0 0 0 0 0 0 0 0 0 0 0 0 0 0 0 0 0 0 0 0 0 0 0 0 0 0 0 0 0 0 0 0 0 0 0
0 0 0 0 0 0 0 0 0 0 0 0 0 0 0 0 0 0 0 0 0 0 0 0 0 0 0 0 0 0 0 0 0 0 0 0 0 0 0 0 0 0 0
0 0 0 0 0 0 0 0 0 0 0 0 0 0 0 0 0 0 0 0 0 0 0 0 0 0 0 0 0 0 0 0 0 0 0 0 0 0 0 0 0 0 0
0 0 0 0 0 0 0 0 0 0 0 0 0 0 0 0 0 0 0 0 0 0 0 0 0 0 0 0 0 0 0 0 0 0 0 0 0 0 0 0 0 0 0
0 0 0 0 0 0 0 0 0 0 0 0 0 0 0 0 0 0 0 0 0 0 0 0 0 0 0 0 0 0 0 0 0 0 0 0 0 0 0 0 0 0 0
0 0 0 0 0 0 0 0 0 0 0 0 0 0 0 0 0 0 0 0 0 0 0 0 0 0 0 0 0 0 0 0 0 0 0 0 0 0 0 0 0 0 0

GEFSMA_con_probscp_156.txt.gz
Probability
11 11 14 13 8 4 2 2 1 1 1 1 0 0 1 1 2 4 7 6 4 4 3 4 5 5 5 6 5 4 1 1 2 2 3 4 5 6 7 7 7 6 5
11 12 13 12 8 5 5 4 3 2 2 1 0 0 2 3 3 3 4 5 5 4 3 3 5 6 7 7 7 4 2 0 1 1 2 3 5 6 7 7 7 7 7
11 10 10 9 7 5 6 6 3 2 2 2 1 1 3 4 3 2 2 5 5 3 3 4 6 8 9 10 9 7 4 2 1 0 1 3 5 5 6 6 6 7 8
8 7 7 6 5 5 5 5 4 4 3 2 1 2 4 3 2 1 1 2 3 3 4 5 7 9 11 12 11 10 8 6 4 2 1 3 4 4 4 5 5 6 7
6 6 7 6 4 5 6 5 5 5 4 2 2 1 2 2 2 1 1 0 1 3 4 5 7 9 11 12 12 12 11 11 9 6 4 3 3 2 2 4 5 6 6
5 7 8 8 6 7 8 8 6 5 3 1 1 0 1 2 2 2 1 1 1 2 3 4 7 9 11 12 12 11 12 14 13 10 7 6 4 2 1 2 3 4 4
7 7 8 9 9 9 9 9 7 5 3 1 1 1 0 1 3 3 2 2 2 2 3 5 7 9 10 10 10 9 10 13 14 13 11 10 7 3 1 1 1 1 1
8 8 8 9 9 9 9 9 8 6 4 3 2 2 1 1 3 2 1 1 2 3 4 5 6 7 8 9 9 8 8 10 11 12 12 11 8 4 1 1 0 0 0
7 8 8 8 8 8 8 8 8 7 6 4 3 3 2 1 2 1 0 0 1 1 3 4 3 3 5 8 8 6 5 6 7 9 10 10 7 4 3 2 1 1 0
7 7 8 7 7 7 7 7 7 7 6 6 5 4 3 2 2 1 0 0 0 0 1 1 1 1 2 4 5 4 3 3 4 5 6 7 6 4 4 4 3 2 1
7 6 6 6 6 6 6 6 7 7 7 7 7 5 3 3 3 2 0 0 0 0 0 0 0 0 0 1 2 2 1 1 1 1 2 3 4 4 4 4 4 3 3
5 4 3 4 4 6 7 7 8 8 9 9 8 6 4 3 2 1 0 0 0 0 0 0 0 0 0 0 1 1 0 0 0 0 0 1 1 3 4 4 4 3 3
2 1 1 2 3 5 7 8 8 9 9 8 7 6 5 3 1 0 0 0 0 0 0 0 0 0 0 0 0 0 0 0 0 0 0 0 0 1 3 3 3 2 2
1 0 0 1 2 3 5 6 6 6 6 6 5 4 3 3 1 1 0 0 0 0 0 0 0 0 0 0 0 0 0 0 0 0 0 0 0 1 2 2 1 1 1
0 0 0 0 1 2 3 4 4 4 4 4 3 2 2 2 2 1 0 0 0 0 0 0 1 0 0 1 0 0 0 0 0 0 0 0 0 0 1 1 0 0 0
0 0 0 0 0 1 2 3 3 3 3 3 3 1 0 1 2 1 0 0 0 0 0 1 2 1 0 0 0 1 1 1 0 0 0 0 0 0 0 0 0 0 0
0 0 0 0 0 0 1 2 2 3 3 3 3 1 1 0 0 0 0 0 0 0 0 0 1 0 0 0 0 1 2 1 0 0 0 0 0 0 0 0 0 0 0
0 0 0 0 0 0 0 1 1 1 2 2 2 2 2 1 1 0 0 0 0 0 0 0 0 0 0 0 0 0 1 1 0 0 0 0 0 0 0 0 0 0 0
0 0 0 0 0 0 0 0 0 0 1 1 1 2 2 2 2 1 0 0 0 0 0 0 0 0 0 0 0 0 0 0 0 0 0 0 0 0 0 0 0 0 0
0 0 0 0 0 0 0 0 0 0 0 0 0 1 1 1 1 1 0 0 0 0 0 0 0 0 0 0 0 0 0 0 0 0 0 0 0 0 0 0 0 0 0
0 0 0 0 0 0 0 0 0 0 0 0 0 0 0 0 0 0 0 0 0 0 0 0 0 0 0 0 0 0 0 0 0 0 0 0 0 0 0 0 0 0 0
0 0 0 0 0 0 0 0 0 0 0 0 0 0 0 0 0 0 0 0 0 0 0 0 0 0 0 0 0 0 0 0 0 0 0 0 0 0 0 0 0 0 0
0 0 0 0 0 0 0 0 0 0 0 0 0 0 0 0 0 0 0 0 0 0 0 0 0 0 0 0 0 0 0 0 0 0 0 0 0 0 0 0 0 0 0
0 0 0 0 0 0 0 0 0 0 0 0 0 0 0 0 0 0 0 0 0 0 0 0 0 0 0 0 0 0 0 0 0 0 0 0 0 0 0 0 0 0 0
0 0 0 0 0 0 0 0 0 0 0 0 0 0 0 0 0 0 0 0 0 0 0 0 0 0 0 0 0 0 0 0 0 0 0 0 0 0 0 0 0 0 0
0 0 0 0 0 0 0 0 0 0 0 0 0 0 0 0 0 0 0 0 0 0 0 0 0 0 0 0 0 0 0 0 0 0 0 0 0 0 0 0 0 0 0

GEFSMA_con_probscp_162.txt.gz
Probability
13 14 15 15 14 12 11 8 5 2 1 0 0 0 1 2 5 9 11 15 15 11 8 7 7 6 4 8 13 14 11 7 4 4 3 2 2 1 2 3 4 4 3
15 15 15 14 12 11 9 7 6 5 4 3 1 0 0 2 5 8 10 12 13 12 12 12 11 10 10 12 15 17 16 13 9 6 4 3 3 2 2 2 3 3 2
18 17 15 12 9 8 6 6 7 8 7 7 5 2 2 4 5 5 6 8 9 11 15 18 17 15 14 15 16 17 19 18 15 11 7 6 5 4 3 2 2 3 3
19 18 15 10 7 5 4 6 8 9 9 9 7 5 5 6 4 3 4 6 8 9 14 17 17 15 14 13 14 15 17 20 19 15 11 9 8 5 3 2 2 3 3
18 18 14 10 7 6 5 6 8 9 8 9 8 6 6 7 5 4 5 6 7 8 10 12 13 13 11 11 12 14 17 19 18 17 14 11 9 6 3 3 3 2 2
17 17 15 10 8 7 6 6 7 8 8 8 7 5 5 6 7 7 7 7 7 6 6 8 10 10 9 9 10 13 15 16 15 14 14 12 10 7 4 3 4 3 2
15 16 14 11 9 8 7 7 7 7 7 7 6 4 3 4 5 6 7 7 6 4 3 5 7 8 8 8 8 10 13 13 13 11 11 11 10 7 5 4 3 3 3
12 13 13 13 12 10 9 8 8 7 6 6 5 2 1 1 2 3 5 5 5 5 5 6 7 7 8 8 7 8 10 11 11 9 8 9 9 7 5 4 3 3 3
9 11 12 11 11 12 11 10 9 7 6 6 4 2 1 1 1 1 2 3 4 5 6 7 7 7 7 8 6 6 7 8 8 8 7 6 6 7 7 5 4 3 2
9 10 10 9 10 12 12 10 9 7 6 5 4 3 3 3 2 1 1 1 2 4 5 5 6 6 8 8 5 3 3 4 5 5 5 5 5 6 7 6 5 5 4
10 10 9 9 10 12 11 9 7 5 4 4 3 4 5 5 4 2 1 0 1 2 3 4 5 6 7 7 4 2 2 1 2 2 3 3 4 4 5 6 6 7 7
9 8 7 8 9 9 9 7 5 3 2 3 3 3 4 5 5 4 2 0 0 1 2 3 5 6 7 5 3 1 1 0 0 1 1 1 2 3 4 5 6 5 5
5 5 4 4 5 6 5 4 5 4 2 2 2 1 2 3 4 4 2 1 0 0 1 3 5 6 6 4 1 0 0 0 0 0 0 0 1 1 2 2 3 2 1
4 3 2 2 2 3 2 2 4 4 2 1 1 0 1 3 4 4 3 2 1 0 0 2 3 4 4 3 1 0 0 0 0 0 0 0 0 0 0 0 0 0 0
3 3 3 2 2 2 1 1 2 2 2 1 0 1 3 4 5 5 4 3 1 0 0 0 1 1 2 1 0 0 0 0 0 0 0 0 0 0 0 0 0 0 0
1 2 2 2 2 1 1 0 0 1 1 1 0 1 3 5 6 6 5 2 1 0 0 0 0 0 0 0 0 0 0 0 0 0 0 0 0 0 0 0 0 0 0
0 1 1 1 1 0 0 0 0 0 0 0 0 0 2 4 6 6 5 3 1 1 0 0 0 0 0 0 0 0 0 0 0 0 0 0 0 0 0 0 0 0 0
0 0 0 0 0 0 0 0 0 0 0 0 0 0 0 2 3 5 5 3 2 1 0 0 0 0 0 0 0 0 0 0 0 0 0 0 0 0 0 0 0 0 0
0 0 0 0 0 0 0 0 0 0 0 0 0 0 0 0 1 3 3 3 1 0 0 0 0 0 0 0 0 0 0 0 0 0 0 0 0 0 0 0 0 0 0
0 0 0 0 0 0 0 0 0 0 0 0 0 0 0 0 0 1 1 1 1 0 0 0 0 0 0 0 0 0 0 0 0 0 0 0 0 0 0 0 0 0 0
0 0 0 0 0 0 0 0 0 0 0 0 0 0 0 0 0 0 0 0 0 0 0 0 0 0 0 0 0 0 0 0 0 0 0 0 0 0 0 0 0 0 0
0 0 0 0 0 0 0 0 0 0 0 0 0 0 0 0 0 0 0 0 0 0 0 0 0 0 0 0 0 0 0 0 0 0 0 0 0 0 0 0 0 0 0
0 0 0 0 0 0 0 0 0 0 0 0 0 0 0 0 0 0 0 0 0 0 0 0 0 0 0 0 0 0 0 0 0 0 0 0 0 0 0 0 0 0 0
0 0 0 0 0 0 0 0 0 0 0 0 0 0 0 0 0 0 0 0 0 0 0 0 0 0 0 0 0 0 0 0 0 0 0 0 0 0 0 0 0 0 0
0 0 0 0 0 0 0 0 0 0 0 0 0 0 0 0 0 0 0 0 0 0 0 0 0 0 0 0 0 0 0 0 0 0 0 0 0 0 0 0 0 0 0
0 0 0 0 0 0 0 0 0 0 0 0 0 0 0 0 0 0 0 0 0 0 0 0 0 0 0 0 0 0 0 0 0 0 0 0 0 0 0 0 0 0 0

GEFSMA_con_probscp_168.txt.gz
Probability
0 1 0 0 0 0 0 0 0 0 0 0 0 0 0 0 0 0 1 4 7 9 8 5 3 5 6 7 7 7 10 12 12 11 8 4 2 1 1 2 3 2 0
1 1 0 0 0 0 0 0 0 0 0 0 0 0 0 0 0 0 0 1 3 4 5 4 4 5 6 8 8 8 11 14 15 14 9 5 3 3 2 3 4 3 2
1 1 0 0 0 0 0 0 0 0 0 0 0 0 0 0 0 0 0 0 1 1 1 2 2 4 6 8 8 8 11 14 15 13 8 4 4 3 2 2 4 4 3
2 1 1 1 0 0 0 0 0 0 0 0 0 0 0 0 0 0 0 0 1 1 1 1 1 1 4 6 6 6 9 12 12 10 6 4 5 4 2 1 2 3 3
3 2 2 2 1 1 0 0 0 0 0 0 0 0 0 0 0 0 0 0 1 1 2 2 1 0 2 3 3 3 5 8 10 9 7 5 6 6 3 2 2 2 3
6 5 3 3 2 2 1 1 1 0 0 0 0 0 0 0 0 0 0 0 0 0 1 2 1 0 1 2 2 2 3 6 8 8 6 4 5 6 5 5 5 4 3
7 6 4 3 4 3 2 2 2 1 0 0 0 0 0 0 0 0 0 0 0 0 1 2 1 1 0 1 3 3 3 4 5 5 4 3 3 3 4 5 6 5 5
5 5 4 4 5 5 3 3 3 1 0 0 0 0 0 0 0 0 0 0 0 0 1 2 1 1 0 0 1 2 2 3 3 3 3 3 2 1 1 2 3 4 5
4 4 4 4 4 5 4 3 3 2 0 0 0 0 0 0 0 0 0 0 0 0 1 2 2 1 0 0 0 1 1 1 1 2 3 2 2 1 0 0 1 2 3
2 3 3 3 3 4 3 3 2 1 0 0 0 0 0 0 0 0 0 0 0 0 0 1 1 1 0 0 0 0 0 0 1 2 3 3 1 0 0 0 0 0 1
1 1 2 3 3 3 3 1 1 0 0 0 0 0 0 0 0 0 0 0 0 0 0 0 0 0 0 0 0 0 0 0 1 1 2 3 1 0 0 0 0 0 0
0 0 1 2 2 2 2 1 0 0 0 0 0 0 0 0 0 0 0 0 0 0 0 0 0 0 0 0 0 0 0 0 0 0 1 1 0 0 0 0 0 0 0
0 0 0 1 1 1 1 1 0 0 0 0 0 0 0 0 0 0 0 0 0 0 0 0 0 0 0 0 0 0 0 0 0 0 0 0 0 0 0 0 0 0 0
0 0 0 0 0 0 1 1 0 0 0 0 0 0 0 0 0 0 0 0 0 0 0 0 0 0 0 0 0 0 0 0 0 0 0 0 0 0 0 0 0 0 0
0 0 0 0 0 0 1 1 0 0 0 0 0 0 0 0 0 0 0 0 0 0 0 0 0 0 0 0 0 0 0 0 0 0 0 0 0 0 0 0 0 0 0
0 0 0 0 0 0 0 0 0 0 0 0 0 0 0 0 0 0 0 0 0 0 0 0 0 0 0 0 0 0 0 0 0 0 0 0 0 0 0 0 0 0 0
0 0 0 0 0 0 0 0 0 0 0 0 0 0 0 0 0 0 0 0 0 0 0 0 0 0 0 0 0 0 0 0 0 0 0 0 0 0 0 0 0 0 0
0 0 0 0 0 0 0 0 0 0 0 0 0 0 0 0 0 0 0 0 0 0 0 0 0 0 0 0 0 0 0 0 0 0 0 0 0 0 0 0 0 0 0
0 0 0 0 0 0 0 0 0 0 0 0 0 0 0 0 0 0 0 0 0 0 0 0 0 0 0 0 0 0 0 0 0 0 0 0 0 0 0 0 0 0 0
0 0 0 0 0 0 0 0 0 0 0 0 0 0 0 0 0 0 0 0 0 0 0 0 0 0 0 0 0 0 0 0 0 0 0 0 0 0 0 0 0 0 0
0 0 0 0 0 0 0 0 0 0 0 0 0 0 0 0 0 0 0 0 0 0 0 0 0 0 0 0 0 0 0 0 0 0 0 0 0 0 0 0 0 0 0
0 0 0 0 0 0 0 0 0 0 0 0 0 0 0 0 0 0 0 0 0 0 0 0 0 0 0 0 0 0 0 0 0 0 0 0 0 0 0 0 0 0 0
0 0 0 0 0 0 0 0 0 0 0 0 0 0 0 0 0 0 0 0 0 0 0 0 0 0 0 0 0 0 0 0 0 0 0 0 0 0 0 0 0 0 0
0 0 0 0 0 0 0 0 0 0 0 0 0 0 0 0 0 0 0 0 0 0 0 0 0 0 0 0 0 0 0 0 0 0 0 0 0 0 0 0 0 0 0
0 0 0 0 0 0 0 0 0 0 0 0 0 0 0 0 0 0 0 0 0 0 0 0 0 0 0 0 0 0 0 0 0 0 0 0 0 0 0 0 0 0 0
0 0 0 0 0 0 0 0 0 0 0 0 0 0 0 0 0 0 0 0 0 0 0 0 0 0 0 0 0 0 0 0 0 0 0 0 0 0 0 0 0 0 0

GEFSMA_con_probscp_174.txt.gz
Probability
0 0 0 0 0 0 0 0 0 0 0 0 0 0 0 0 0 1 1 1 2 2 1 1 3 5 6 5 5 5 4 2 0 0 0 0 0 0 0 0 0 0 0
0 0 0 0 0 0 0 0 0 0 0 0 0 0 0 0 0 1 1 0 1 1 1 1 3 4 5 5 5 5 4 2 0 0 0 0 0 0 0 0 0 0 0
0 0 0 0 0 0 0 0 0 0 0 0 0 0 0 0 1 1 0 0 0 0 0 1 3 3 3 4 4 4 5 3 1 0 0 0 0 0 0 0 0 0 0
0 0 0 0 0 0 0 0 0 0 0 0 0 0 0 0 1 0 0 0 0 0 0 1 2 2 1 2 4 5 6 5 2 0 0 1 2 2 1 0 0 0 0
1 0 0 0 0 0 0 0 0 0 0 0 0 0 0 0 0 0 0 0 0 0 0 0 1 1 1 2 4 6 7 6 4 2 2 3 3 2 1 0 0 0 0
1 0 0 0 0 0 0 0 0 0 0 0 0 0 0 0 0 0 0 0 0 0 0 0 0 0 1 2 3 5 6 6 5 4 4 4 3 2 1 0 0 0 0
1 1 1 1 1 1 0 0 1 1 1 0 0 0 0 0 0 0 0 0 0 0 0 0 0 0 1 2 2 3 3 3 4 4 4 4 3 3 1 0 0 0 0
2 2 2 2 2 2 1 1 1 2 2 1 0 0 0 0 0 0 0 0 0 0 0 0 0 0 0 1 1 1 2 2 3 5 5 4 5 4 3 1 0 0 0
2 2 2 2 2 3 2 2 2 3 3 1 0 0 0 0 0 0 0 0 0 0 0 0 0 0 0 0 0 0 1 2 4 5 6 5 6 6 5 3 2 2 1
1 1 0 1 1 1 1 2 3 3 3 2 0 0 0 0 0 0 0 0 0 0 0 0 0 0 0 0 0 0 1 2 3 4 5 5 5 6 6 5 4 3 3
0 0 0 0 0 0 0 1 3 3 2 1 0 0 0 0 0 0 0 0 0 0 0 0 0 0 0 0 0 0 0 0 1 2 2 3 4 6 6 5 4 4 4
0 0 0 0 0 0 0 1 2 2 1 0 0 0 0 0 0 0 0 0 0 0 0 0 0 0 0 0 0 0 0 0 0 1 1 2 3 4 4 4 3 3 3
0 0 0 0 0 0 0 0 1 1 1 0 0 0 0 0 0 0 0 0 0 0 0 0 0 0 0 0 0 0 0 0 1 1 1 2 2 2 2 2 2 1 1
0 0 0 0 0 0 0 0 0 0 0 0 0 0 0 0 0 0 0 0 0 0 0 0 0 0 0 0 0 0 0 0 0 0 1 1 1 0 1 1 1 0 0
0 0 0 0 0 0 0 0 0 0 0 0 0 0 0 0 0 0 0 0 0 0 0 0 0 0 0 0 0 0 0 0 0 0 0 0 0 0 0 0 0 0 0
0 0 0 0 0 0 0 0 0 0 0 0 0 0 0 0 0 0 0 0 0 0 0 0 0 0 0 0 0 0 0 0 0 0 0 0 0 0 0 0 0 0 0
0 0 0 0 0 0 0 0 0 0 0 0 0 0 0 0 0 0 0 0 0 0 0 0 0 0 0 0 0 0 0 0 0 0 0 0 0 0 0 0 0 0 0
0 0 0 0 0 0 0 0 0 0 0 0 0 0 0 0 0 0 0 0 0 0 0 0 0 0 0 0 0 0 0 0 0 0 0 0 0 0 0 0 0 0 0
0 0 0 0 0 0 0 0 0 0 0 0 0 0 0 0 0 0 0 0 0 0 0 0 0 0 0 0 0 0 0 0 0 0 0 0 0 0 0 0 0 0 0
0 0 0 0 0 0 0 0 0 0 0 0 0 0 0 0 0 0 0 0 0 0 0 0 0 0 0 0 0 0 0 0 0 0 0 0 0 0 0 0 0 0 0
0 0 0 0 0 0 0 0 0 0 0 0 0 0 0 0 0 0 0 0 0 0 0 0 0 0 0 0 0 0 0 0 0 0 0 0 0 0 0 0 0 0 0
0 0 0 0 0 0 0 0 0 0 0 0 0 0 0 0 0 0 0 0 0 0 0 0 0 0 0 0 0 0 0 0 0 0 0 0 0 0 0 0 0 0 0
0 0 0 0 0 0 0 0 0 0 0 0 0 0 0 0 0 0 0 0 0 0 0 0 0 0 0 0 0 0 0 0 0 0 0 0 0 0 0 0 0 0 0
0 0 0 0 0 0 0 0 0 0 0 0 0 0 0 0 0 0 0 0 0 0 0 0 0 0 0 0 0 0 0 0 0 0 0 0 0 0 0 0 0 0 0
0 0 0 0 0 0 0 0 0 0 0 0 0 0 0 0 0 0 0 0 0 0 0 0 0 0 0 0 0 0 0 0 0 0 0 0 0 0 0 0 0 0 0
0 0 0 0 0 0 0 0 0 0 0 0 0 0 0 0 0 0 0 0 0 0 0 0 0 0 0 0 0 0 0 0 0 0 0 0 0 0 0 0 0 0 0

GEFSMA_con_probscp_180.txt.gz
Probability
4 2 1 3 3 2 2 2 2 2 2 1 0 0 0 1 2 4 7 5 2 1 2 4 5 5 6 10 11 10 9 7 6 5 3 2 1 1 1 1 2 1 0
3 1 1 1 2 3 2 1 1 2 3 1 0 0 0 1 1 3 5 4 2 1 1 4 4 3 4 8 10 9 9 8 8 7 4 2 1 2 2 1 1 0 0
2 2 1 1 1 2 2 1 2 3 2 1 1 0 1 1 1 1 3 3 2 1 1 2 3 3 4 6 7 7 8 10 8 6 4 3 3 3 3 2 1 0 0
4 3 2 2 1 1 1 2 3 4 3 2 2 2 2 2 2 1 2 3 3 1 1 3 4 3 4 5 5 6 7 8 6 4 4 4 3 3 2 2 1 0 0
5 4 3 1 0 1 1 2 4 5 5 4 3 4 3 2 2 1 1 3 3 2 3 4 4 3 3 3 3 4 6 7 6 5 4 4 3 2 1 1 1 0 0
4 4 3 1 1 2 2 3 5 7 7 6 5 5 4 2 1 0 1 2 2 2 2 2 2 3 3 2 2 3 5 5 7 7 6 4 3 3 2 1 1 0 0
3 3 4 4 4 4 4 4 6 7 7 6 5 4 3 1 1 0 0 1 1 1 1 1 2 2 3 2 2 2 2 4 7 9 8 6 4 4 3 1 0 0 0
3 3 4 6 7 8 7 6 7 8 7 6 6 5 3 3 2 1 0 0 1 1 1 1 1 2 2 2 1 1 0 2 5 7 7 7 7 5 3 1 0 0 0
3 3 3 4 6 8 7 6 6 6 6 6 6 6 5 4 3 2 1 0 1 2 2 0 0 1 1 1 1 0 0 1 2 4 6 7 7 6 5 3 1 0 0
3 3 3 3 4 5 5 4 3 3 5 6 6 7 6 5 3 2 1 1 1 1 1 0 1 1 1 1 1 0 0 0 1 2 4 6 7 7 7 6 5 2 1
4 4 5 4 3 5 4 2 1 2 4 6 7 7 7 6 5 3 1 0 0 0 0 0 1 1 1 1 1 1 0 0 0 1 2 4 5 6 8 9 9 7 4
6 6 5 4 4 4 4 2 1 1 3 6 7 8 8 6 5 3 1 0 0 0 0 0 0 0 0 1 1 1 0 0 0 0 1 1 3 4 7 9 9 9 8
7 6 4 4 5 5 4 3 2 1 4 6 8 9 8 6 4 2 1 0 0 0 0 0 0 0 0 0 1 1 0 0 0 0 0 0 1 2 4 6 8 9 9
5 3 3 4 5 4 4 4 2 2 4 5 5 6 6 5 4 2 1 0 0 0 0 0 0 0 0 0 0 1 1 0 0 0 0 0 0 0 2 3 5 6 6
1 1 3 4 4 3 3 3 2 1 2 3 2 2 3 3 2 1 0 0 0 0 0 0 0 0 0 0 0 0 0 0 0 0 0 0 0 0 0 1 2 2 2
0 1 3 3 2 3 3 2 1 0 1 1 0 0 1 1 1 0 0 1 0 0 0 1 1 1 0 0 0 0 0 0 0 0 0 0 0 0 0 0 0 0 0
1 3 4 3 1 2 2 1 0 0 0 0 0 0 0 0 0 0 0 0 0 0 0 1 1 1 0 0 0 0 0 0 0 0 0 0 0 0 0 0 0 0 0
2 3 4 3 1 1 1 0 0 0 0 0 0 0 0 0 0 0 0 0 0 0 0 0 0 1 1 0 0 0 0 0 0 0 0 0 0 0 0 0 0 0 0
1 1 2 1 0 0 0 0 0 0 0 0 0 0 0 0 0 0 0 0 0 0 0 0 0 0 0 0 0 0 0 0 0 0 0 0 0 0 0 0 0 0 0
0 0 0 0 0 0 0 0 0 0 0 0 0 0 0 0 0 0 0 0 0 0 0 0 0 0 0 0 0 0 0 0 0 0 0 0 0 0 0 0 0 0 0
0 0 0 0 0 0 0 0 0 0 0 0 0 0 0 0 0 0 0 0 0 0 0 0 0 0 0 0 0 0 0 0 0 0 0 0 0 0 1 1 0 0 0
0 0 0 0 0 0 0 0 0 0 0 0 0 0 0 0 0 0 0 0 0 0 0 0 0 0 0 0 0 0 0 0 0 0 0 0 0 0 1 1 0 0 0
0 0 0 0 0 0 0 0 0 0 0 0 0 0 0 0 0 0 0 0 0 0 0 0 0 0 0 0 0 0 0 0 0 0 0 0 0 0 1 1 0 0 0
0 0 0 0 0 0 0 0 0 0 0 0 0 0 0 0 0 0 0 0 0 0 0 0 0 0 0 0 0 0 0 0 0 0 0 0 0 0 0 0 0 0 0
0 0 0 0 0 0 0 0 0 0 0 0 0 0 0 0 0 0 0 0 0 0 0 0 0 0 0 0 0 0 0 0 0 0 0 0 0 0 0 0 0 0 0
0 0 0 0 0 0 0 0 0 0 0 0 0 0 0 0 0 0 0 0 0 0 0 0 0 0 0 0 0 0 0 0 0 0 0 0 0 0 0 0 0 0 0

GEFSMA_con_probscp_186.txt.gz
Probability
18 17 15 9 5 3 3 2 2 1 1 1 1 1 3 5 4 3 3 5 9 11 12 11 9 6 3 6 11 17 20 19 16 14 11 8 6 6 7 8 6 4 3
18 17 15 10 6 5 4 4 3 2 2 2 2 2 3 4 4 2 2 3 6 9 10 10 9 6 3 5 10 16 20 20 19 17 13 9 7 7 7 5 3 3 4
19 18 15 11 8 7 7 7 5 4 3 3 3 3 3 3 3 3 3 3 3 5 8 10 9 7 5 6 9 15 20 23 23 20 14 9 8 6 5 3 1 2 3
19 20 16 11 9 9 9 7 5 4 3 3 3 3 2 3 4 5 5 4 2 3 6 9 10 8 7 7 10 14 19 23 23 19 14 11 9 7 4 3 2 2 2
19 20 17 11 9 8 8 6 6 5 4 3 3 3 3 5 6 6 5 4 4 4 6 8 9 8 6 6 9 13 16 18 18 17 15 11 9 7 4 3 3 2 1
19 19 17 14 11 9 8 7 7 5 5 4 3 3 4 6 7 6 5 4 5 6 6 7 7 7 5 5 8 10 12 12 13 14 14 11 8 6 3 2 2 1 0
20 19 17 15 12 10 9 9 7 6 6 6 5 4 4 5 5 5 6 5 5 6 6 6 5 5 5 5 6 8 8 8 8 10 11 10 8 6 3 3 2 1 0
21 19 17 15 13 11 10 10 9 7 6 6 5 4 4 3 2 2 4 5 5 5 4 3 2 3 2 3 4 5 6 6 6 6 7 9 9 7 5 4 4 2 1
21 20 17 15 13 11 9 9 9 8 5 3 3 4 4 3 1 1 1 2 3 3 2 1 0 0 0 1 1 3 4 4 4 4 5 8 9 8 7 6 5 4 3
19 19 17 14 11 9 8 7 8 8 5 2 3 4 4 3 2 1 0 0 1 1 1 0 0 0 0 0 0 1 2 2 2 3 4 5 6 6 7 7 6 4 4
16 16 15 13 11 9 9 8 8 8 5 3 3 4 4 5 4 2 0 0 0 1 1 0 0 0 0 0 0 1 1 0 1 1 1 2 3 3 4 4 3 3 4
14 14 14 13 11 9 9 9 8 8 6 5 5 4 3 5 5 3 1 0 0 1 1 0 0 0 0 0 0 0 0 0 0 0 0 1 2 2 2 2 1 1 3
13 12 11 12 10 8 7 7 7 7 7 6 5 4 3 3 3 2 1 0 0 0 0 0 0 0 0 0 0 0 0 0 0 0 0 0 1 2 2 1 1 1 1
11 10 9 8 8 7 6 6 6 6 6 5 3 3 3 2 1 1 1 0 0 0 0 0 0 0 0 0 0 0 0 0 0 0 0 0 0 1 2 1 1 0 0
10 9 7 6 6 6 5 4 4 4 4 3 3 2 1 1 1 2 2 1 0 0 0 0 0 1 1 0 0 0 0 0 0 0 0 0 0 1 1 0 0 0 0
9 6 4 4 5 5 4 4 3 2 2 2 2 1 0 0 1 2 3 2 1 0 0 0 0 1 1 0 0 0 0 0 0 0 0 0 0 0 0 0 0 0 0
7 5 3 3 4 4 3 3 3 1 0 1 1 0 0 0 1 1 2 2 1 0 0 0 0 0 0 0 0 0 0 0 0 0 0 0 0 0 0 0 0 0 0
6 5 4 3 3 3 3 3 2 0 0 0 0 0 0 0 0 0 1 1 0 0 0 0 0 0 0 0 0 0 0 0 0 0 0 0 0 0 0 0 0 0 0
6 5 4 3 3 3 3 2 1 0 0 0 0 0 0 0 0 0 0 0 0 0 0 0 0 0 0 0 0 0 0 0 0 0 0 0 0 0 0 0 0 0 0
5 4 4 4 3 2 1 1 0 0 0 0 0 0 0 0 0 0 0 0 0 0 0 0 0 0 0 0 0 0 0 0 0 0 0 0 0 0 0 0 0 0 0
3 3 4 4 2 1 0 0 0 0 0 0 0 0 0 0 0 0 0 0 0 0 0 0 0 0 0 0 0 0 0 0 0 0 0 0 0 0 0 0 0 0 0
2 2 2 2 1 0 0 0 0 0 0 0 0 0 0 0 0 0 0 0 0 0 0 0 0 0 0 0 0 0 0 0 0 0 0 0 0 0 0 0 0 0 0
2 2 1 0 0 0 0 0 0 0 0 0 0 0 0 0 0 0 0 0 0 0 0 0 0 0 0 0 0 0 0 0 0 0 0 0 0 0 0 0 0 0 0
5 4 2 1 1 0 0 0 0 0 0 0 0 0 0 0 0 0 0 0 0 0 0 0 0 0 0 0 0 0 0 0 0 0 0 0 0 0 0 0 0 0 0
7 5 3 2 1 0 0 0 0 0 0 0 0 0 0 0 0 0 0 0 0 0 0 0 0 0 0 0 0 0 0 0 0 0 0 0 0 0 0 0 0 0 0
5 4 2 1 1 0 0 0 0 0 0 0 0 0 0 0 0 0 0 0 0 0 0 0 0 0 0 0 0 0 0 0 0 0 0 0 0 0 0 0 0 0 0